EW4229 Weather Reports


Display with metric or nautical units.
time (UTC)temp
F
wind
direction
speed
MPH
gust
MPH
rain 1hr
in
rain 24hr
in
rain mn
in
humidity
%
barometer
mb
20260504081555 38 290 0.0 0.0 0.00 0.00 0.00 80 1014.4
20260504043029 43 300 0.0 1.0 0.00 0.00 0.00 68 1014.3
20260504041528 42 305 0.0 0.0 0.00 0.00 0.00 73 1014.2
20260504040025 42 308 0.0 0.0 0.00 0.00 0.00 71 1014.3
20260504033017 0 0.0 0.0 0.00 0.00 0.00 1014.1
20260504031514 0 0.0 0.0 0.00 0.00 0.00 1014.0
20260504030008 0 0.0 0.0 0.00 0.00 0.00 1013.9
20260504023009 45 250 0.0 0.0 0.00 0.00 0.00 68 1014.0
20260504021507 45 243 0.0 0.0 0.00 0.00 0.00 67 1014.0
20260504020009 47 260 0.0 0.0 0.00 0.00 0.00 65 1014.0
20260504013009 45 301 0.0 0.0 0.00 0.00 0.00 66 1013.8
20260504011505 46 304 0.0 0.0 0.00 0.00 0.00 65 1013.7
20260504010004 48 303 0.0 0.0 0.00 0.00 0.00 60 1013.5
20260504003004 51 300 0.0 1.0 0.00 0.00 0.00 55 1013.3
20260504001504 53 300 0.0 3.0 0.00 0.00 0.00 48 1013.2
20260504000004 54 310 1.0 3.0 0.00 0.00 0.00 44 1013.0
20260503233001 0 0.0 0.0 0.00 0.00 0.00 1012.8
20260503231558 0 0.0 0.0 0.00 0.00 0.00 1012.7
20260503230053 0 0.0 0.0 0.00 0.00 0.00 1012.6
20260503223053 60 301 2.0 10.0 0.00 0.00 0.00 35 1012.6
20260503221552 60 306 5.0 11.0 0.00 0.00 0.00 35 1012.6
20260503220054 60 318 8.0 14.0 0.00 0.00 0.00 34 1012.7
20260503213056 60 320 6.0 14.0 0.00 0.00 0.00 37 1012.7
20260503211548 59 337 6.0 12.0 0.00 0.00 0.00 37 1012.5
20260503210100 60 268 4.0 11.0 0.00 0.00 0.00 35 1012.6
20260503203053 58 294 10.0 16.0 0.00 0.00 0.00 45 1012.6
20260503201546 57 299 5.0 13.0 0.00 0.00 0.00 44 1012.9
20260503200049 58 294 5.0 16.0 0.00 0.00 0.00 46 1012.9
20260503193048 58 328 3.0 11.0 0.00 0.00 0.00 36 1013.3
20260503191542 57 314 6.0 16.0 0.00 0.00 0.00 37 1013.5
20260503190041 58 302 11.0 19.0 0.00 0.00 0.00 36 1013.5
20260503183055 57 304 6.0 15.0 0.00 0.00 0.00 36 1014.1
20260503181541 57 332 8.0 14.0 0.00 0.00 0.00 36 1014.0
20260503180037 56 343 6.0 13.0 0.00 0.00 0.00 40 1014.2
20260503173027 54 209 6.0 12.0 0.00 0.00 0.00 42 1014.4
20260503171524 53 258 7.0 12.0 0.00 0.00 0.00 40 1014.6